Tracking 25734 objects as of 27-May-2022
HD Live streaming from Space Station
objects crossing your sky now

SL-16 DEB

Track SL-16 DEB now!
10-day predictions


NORAD ID: 22608
Int'l Code: 1993-016S
Perigee: 859.1 km
Apogee: 1,050.9 km
Inclination: 71.0 °
Period: 104.0 minutes
Semi major axis: 7325 km
RCS: 0.1814 m2 (medium)
Launch date: March 26, 1993
Source: Commonwealth of Independent States (former USSR) (CIS)
Launch site: TYURATAM MISSILE AND SPACE COMPLEX (TTMTR)

Note: This is SATELLITE DEBRIS
aabbcc
Your satellite tracking list
Your tracking list is empty




NASA's NSSDC Master Catalog

Two Line Element Set (TLE):
1 22608U 93016S   22146.65733495 -.00000011  00000-0  27393-4 0  9995
2 22608  71.0047 245.3588 0130897 178.1740 295.1009 13.84541981473723
Source of the keplerian elements: AFSPC